Starlink 34008

operational
NORAD ID: 64037 Int'l Des: 2025-102 Owner: SPXS Country: US Constellation: starlink
LEOCIRCULAR

About Starlink 34008

Description loading...

Live Position

Loading 3D Globe...

Upcoming Passes

Altitude History

Altitude vs Time

uPlot chart will show altitude changes over time

Two-Line Element Set

1 64037U 25102R 25312.60110773 .00012063 00000-0 10165-2 0 9995
2 64037 70.0027 59.7825 0003440 275.3989 84.6777 14.98348732 27825
Epoch: Nov 8, 2025 • Age: 62 hours

Current Status

Altitude 579.8 km
Velocity 7.57 km/s
Sub-Earth Point -25.98°S, 79.35°W
Launch Date May 16, 2025
Age 0.4 years
Type internet

Technical Details

Classification Payload
Mass 575.00 kg
Dry Mass 530.00 kg
Total Mass 575.00 kg
Length 0.30 m
Diameter 4.10 m
Span 29.00 m
Shape Box + pan
Manufacturer SPXS
Bus Type Starlink V2MO
Phase Status In Orbit
Owner/State SPXS/US

Large Constellations

Loading constellations...